User: anonymous   Login
Location: Unspecified
(0.0000°N, 0.0000°E)
Time: 09:10:48
(UTC+00:00)
Language:

Diademe D-1C - Orbit

View from above orbital plane
View from above orbital plane
View from above satellite
View from above satellite

Ground track
Ground track

The orbit data is extracted from the following two-line orbital elements,

1 02674U 67011A   18110.11786416  .00000211  00000-0  49965-4 0  9990
2 02674  39.9266   4.8567 0267258 321.2316  36.9552 14.54525612654060
Epoch (UTC): 20 April 2018 02:49:43
Eccentricity: 0.0267258
inclination: 39.9266°
perigee height: 521 km
apogee height: 900 km
right ascension of ascending node: 4.8567°
argument of perigee: 321.2316°
revolutions per day: 14.54525612
mean anomaly at epoch: 36.9552°
orbit number at epoch: 65406

The dashed part of the orbit path shows where the satellite is in the earth's shadow,  

DLR